TimePDT,TemperatureF,Dew PointF,Humidity,Sea Level PressureIn,VisibilityMPH,Wind Direction,Wind SpeedMPH,Gust SpeedMPH,PrecipitationIn,Events,Conditions,WindDirDegrees,DateUTC
12:56 AM,82.9,28.9,14,29.73,10.0,West,16.1,-,N/A,,Clear,260,2013-06-22 07:56:00
1:56 AM,82.0,26.1,13,29.73,10.0,West,15.0,-,N/A,,Clear,260,2013-06-22 08:56:00
2:56 AM,79.0,26.1,14,29.72,10.0,West,13.8,-,N/A,,Clear,270,2013-06-22 09:56:00
3:56 AM,77.0,30.0,18,29.73,10.0,WSW,8.1,-,N/A,,Clear,240,2013-06-22 10:56:00
4:56 AM,77.0,28.9,17,29.74,10.0,West,6.9,-,N/A,,Clear,270,2013-06-22 11:56:00
5:56 AM,73.9,33.1,22,29.75,10.0,South,6.9,-,N/A,,Scattered Clouds,180,2013-06-22 12:56:00
6:56 AM,78.1,46.0,32,29.77,10.0,SSE,3.5,-,N/A,,Scattered Clouds,160,2013-06-22 13:56:00
7:56 AM,80.1,46.9,31,29.79,6.0,Calm,Calm,-,N/A,,Haze,0,2013-06-22 14:56:00
8:56 AM,84.0,48.9,29,29.81,10.0,ESE,8.1,-,N/A,,Scattered Clouds,120,2013-06-22 15:56:00
9:56 AM,89.1,46.0,22,29.80,10.0,ESE,5.8,-,N/A,,Scattered Clouds,120,2013-06-22 16:56:00
10:56 AM,93.9,37.9,14,29.80,10.0,SE,5.8,-,N/A,,Scattered Clouds,130,2013-06-22 17:56:00
11:56 AM,97.0,33.1,11,29.78,10.0,SSE,4.6,-,N/A,,Partly Cloudy,160,2013-06-22 18:56:00
12:56 PM,99.0,33.1,10,29.76,10.0,SE,6.9,-,N/A,,Partly Cloudy,130,2013-06-22 19:56:00
1:56 PM,100.9,28.9,8,29.73,10.0,NE,4.6,-,N/A,,Clear,50,2013-06-22 20:56:00
2:56 PM,102.0,32.0,9,29.71,10.0,East,8.1,-,N/A,,Clear,80,2013-06-22 21:56:00
3:56 PM,102.0,34.0,9,29.69,10.0,ESE,8.1,-,N/A,,Clear,110,2013-06-22 22:56:00
4:56 PM,102.9,34.0,9,29.66,10.0,East,8.1,-,N/A,,Clear,90,2013-06-22 23:56:00
5:56 PM,102.0,39.0,11,29.65,10.0,East,5.8,-,N/A,,Clear,100,2013-06-23 00:56:00
6:56 PM,100.9,39.0,12,29.66,10.0,East,6.9,-,N/A,,Clear,80,2013-06-23 01:56:00
7:56 PM,95.0,36.0,13,29.67,10.0,WSW,15.0,-,N/A,,Clear,240,2013-06-23 02:56:00
8:56 PM,91.0,36.0,14,29.69,10.0,WSW,17.3,-,N/A,,Clear,250,2013-06-23 03:56:00
9:56 PM,88.0,36.0,16,29.71,10.0,WSW,16.1,-,N/A,,Clear,250,2013-06-23 04:56:00
10:56 PM,86.0,37.9,18,29.71,10.0,WSW,18.4,-,N/A,,Clear,250,2013-06-23 05:56:00
11:56 PM,84.0,35.1,17,29.71,10.0,West,11.5,-,N/A,,Clear,270,2013-06-23 06:56:00